Weather History for KPRB - August, 2013

Change the Weather History Date:

Friday, August 30, 2013

  Actual Average Record
Temperature  
Mean Temperature 81 °F 72 °F  
Max Temperature 102 °F 92 °F 110 °F (1998)
Min Temperature 60 °F 53 °F 43 °F (1957)
Degree Days  
Heating Degree Days 0 0  
Month to date heating degree days 0 0  
Since 1 June heating degree days 5 31  
Since 1 July heating degree days 0 4  
Cooling Degree Days 16 7  
Month to date cooling degree days 285 251  
Year to date cooling degree days 960 728  
Since 1 June cooling degree days 830 660  
Growing Degree Days 30 (Base 50)    
Moisture  
Dew Point 51 °F    
Average Humidity 45    
Maximum Humidity 73    
Minimum Humidity 16    
Precipitation  
Precipitation 0.00 in 0.01 in 0.15 in (2007)
Month to date precipitation 0.00 0.11  
Year to date precipitation 1.46 8.90  
Since 1 July precipitation T 0.11  
Sea Level Pressure  
Sea Level Pressure 29.95 in    
Wind  
Wind Speed 5 mph (WNW)    
Max Wind Speed 16 mph    
Max Gust Speed 20 mph    
Visibility 10 miles    
Events      
T = Trace of Precipitation, MM = Missing Value Source: NWS Daily Summary

Daily Weather History Graph

Daily Weather History Graph

Search for Another Location

Airport or City:

Trip Planner

Search our weather history database for the weather conditions in past years. The results will help you decide how hot, cold, wet, or windy it might be!

Date:

Astronomy

Aug. 30, 2013 Rise Set
Actual Time 6:33 AM PDT 7:32 PM PDT
Civil Twilight 6:07 AM PDT 7:58 PM PDT
Nautical Twilight 5:36 AM PDT 8:29 PM PDT
Astronomical Twilight 5:04 AM PDT 9:01 PM PDT
Moon 1:22 AM PDT (8/30) 3:45 PM PDT (8/30)
Length of Visible Light 13h 51m
Length of Day
12h 58m
Waning Crescent, 28% of the Moon is Illuminated
Aug 30
Waning Crescent
Sep 5
New
Sep 12
First Quarter
Sep 19
Full
Sep 26
Last Quarter

Hourly Weather History & Observations

Time (PDT) Temp. Heat Index Dew Point Humidity Pressure Visibility Wind Dir Wind Speed Gust Speed Precip Events Conditions
12:53 AM 70.0 °F - 55.0 °F 59% 30.00 in 10.0 mi NW 6.9 mph - N/A   Clear
1:53 AM 68.0 °F - 55.0 °F 63% 29.98 in 10.0 mi NW 4.6 mph - N/A   Clear
2:53 AM 66.0 °F - 55.0 °F 68% 29.98 in 10.0 mi NNW 4.6 mph - N/A   Clear
3:53 AM 64.0 °F - 55.0 °F 73% 29.98 in 10.0 mi Calm Calm - N/A   Clear
4:53 AM 63.0 °F - 54.0 °F 72% 29.98 in 10.0 mi Calm Calm - N/A   Clear
5:53 AM 61.0 °F - 52.0 °F 72% 29.99 in 10.0 mi Calm Calm - N/A   Clear
6:53 AM 60.1 °F - 51.1 °F 72% 30.01 in 10.0 mi Calm Calm - N/A   Clear
7:53 AM 64.9 °F - 55.0 °F 70% 30.01 in 10.0 mi North 3.5 mph - N/A   Clear
8:53 AM 70.0 °F - 55.0 °F 59% 30.01 in 10.0 mi NNW 6.9 mph - N/A   Clear
9:53 AM 77.0 °F - 54.0 °F 45% 30.01 in 10.0 mi NNW 9.2 mph - N/A   Clear
10:53 AM 82.9 °F 81.8 °F 53.1 °F 36% 29.99 in 10.0 mi NW 8.1 mph - N/A   Clear
11:53 AM 88.0 °F - 51.1 °F 28% 29.98 in 10.0 mi NW 8.1 mph - N/A   Clear
12:53 PM 93.9 °F - 48.9 °F 21% 29.95 in 10.0 mi North 5.8 mph - N/A   Clear
1:53 PM 96.1 °F - 48.0 °F 19% 29.92 in 10.0 mi North 4.6 mph - N/A   Clear
2:53 PM 99.0 °F - 48.0 °F 18% 29.89 in 10.0 mi Variable 4.6 mph - N/A   Clear
3:53 PM 100.0 °F - 46.9 °F 16% 29.87 in 10.0 mi Calm Calm - N/A   Clear
4:53 PM 100.0 °F - 48.0 °F 17% 29.86 in 10.0 mi SW 12.7 mph - N/A   Clear
5:53 PM 96.1 °F - 48.0 °F 19% 29.86 in 10.0 mi SW 13.8 mph - N/A   Clear
6:53 PM 93.0 °F - 46.9 °F 20% 29.86 in 10.0 mi SW 11.5 mph - N/A   Clear
7:53 PM 88.0 °F - 48.0 °F 25% 29.89 in 10.0 mi South 9.2 mph - N/A   Clear
8:53 PM 82.9 °F - 51.1 °F 33% 29.92 in 10.0 mi West 3.5 mph - N/A   Clear
9:53 PM 80.1 °F - 51.1 °F 36% 29.94 in 10.0 mi NW 5.8 mph - N/A   Clear
10:53 PM 77.0 °F - 50.0 °F 39% 29.94 in 10.0 mi Calm Calm - N/A   Clear
11:53 PM 75.0 °F - 50.0 °F 41% 29.94 in 10.0 mi West 3.5 mph - N/A   Clear